TimeCST,TemperatureF,Dew PointF,Humidity,Sea Level PressureIn,VisibilityMPH,Wind Direction,Wind SpeedMPH,Gust SpeedMPH,PrecipitationIn,Events,Conditions,WindDirDegrees,DateUTC
12:12 AM,17.6,15.8,93,30.13,10.0,South,3.5,-,N/A,,Clear,190,2011-11-28 06:12:00
12:32 AM,15.8,15.8,100,30.12,10.0,South,3.5,-,N/A,,Clear,180,2011-11-28 06:32:00
12:53 AM,17.6,15.8,93,30.12,10.0,South,5.8,-,N/A,,Clear,180,2011-11-28 06:53:00
1:12 AM,15.8,15.8,100,30.11,10.0,South,4.6,-,N/A,,Clear,190,2011-11-28 07:12:00
1:32 AM,17.6,15.8,93,30.10,10.0,South,3.5,-,N/A,,Clear,180,2011-11-28 07:32:00
1:53 AM,17.6,15.8,93,30.10,10.0,South,5.8,-,N/A,,Clear,190,2011-11-28 07:53:00
2:12 AM,17.6,15.8,93,30.10,10.0,South,6.9,-,N/A,,Clear,180,2011-11-28 08:12:00
2:32 AM,17.6,15.8,93,30.10,10.0,SSW,6.9,-,N/A,,Clear,200,2011-11-28 08:32:00
2:53 AM,17.6,17.6,100,30.10,10.0,South,5.8,-,N/A,,Clear,190,2011-11-28 08:53:00
3:12 AM,19.4,17.6,93,30.10,10.0,South,9.2,-,N/A,,Clear,190,2011-11-28 09:12:00
3:32 AM,19.4,17.6,93,30.09,10.0,South,6.9,-,N/A,,Clear,190,2011-11-28 09:32:00
3:52 AM,17.6,17.6,100,30.09,10.0,SSW,5.8,-,N/A,,Clear,200,2011-11-28 09:52:00
4:12 AM,17.6,17.6,100,30.08,10.0,SSW,5.8,-,N/A,,Clear,200,2011-11-28 10:12:00
4:33 AM,19.4,17.6,93,30.06,10.0,South,5.8,-,N/A,,Clear,170,2011-11-28 10:33:00
4:52 AM,19.4,17.6,93,30.05,10.0,South,8.1,-,N/A,,Clear,180,2011-11-28 10:52:00
5:12 AM,19.4,17.6,93,30.06,10.0,SSW,9.2,-,N/A,,Clear,200,2011-11-28 11:12:00
5:33 AM,19.4,17.6,93,30.06,10.0,SSW,8.1,-,N/A,,Clear,200,2011-11-28 11:33:00
5:52 AM,17.6,17.6,100,30.06,10.0,SSW,8.1,-,N/A,,Clear,200,2011-11-28 11:52:00
6:33 AM,19.4,17.6,93,30.04,10.0,South,9.2,-,N/A,,Clear,190,2011-11-28 12:33:00
6:52 AM,19.4,17.6,93,30.04,10.0,SSW,8.1,-,N/A,,Clear,200,2011-11-28 12:52:00
7:12 AM,19.4,17.6,93,30.04,10.0,South,8.1,-,N/A,,Clear,190,2011-11-28 13:12:00
7:33 AM,19.4,17.6,93,30.03,10.0,South,9.2,-,N/A,,Clear,190,2011-11-28 13:33:00
7:52 AM,19.4,17.6,93,30.02,10.0,South,10.4,-,N/A,,Clear,180,2011-11-28 13:52:00
8:33 AM,23.0,19.4,86,30.02,10.0,South,10.4,-,N/A,,Clear,190,2011-11-28 14:33:00
8:52 AM,24.8,19.4,80,30.02,10.0,South,9.2,-,N/A,,Clear,180,2011-11-28 14:52:00
9:12 AM,26.6,21.2,80,30.02,10.0,South,10.4,-,N/A,,Clear,180,2011-11-28 15:12:00
9:33 AM,28.4,21.2,74,30.03,10.0,South,10.4,-,N/A,,Clear,190,2011-11-28 15:33:00
9:52 AM,28.4,21.2,74,30.03,10.0,South,13.8,19.6,N/A,,Clear,190,2011-11-28 15:52:00
10:12 AM,30.2,21.2,69,30.03,10.0,South,13.8,19.6,N/A,,Clear,190,2011-11-28 16:12:00
10:33 AM,33.8,21.2,60,30.03,10.0,South,15.0,-,N/A,,Clear,190,2011-11-28 16:33:00
10:52 AM,35.6,21.2,56,30.03,10.0,South,15.0,-,N/A,,Clear,190,2011-11-28 16:52:00
11:12 AM,35.6,21.2,56,30.02,10.0,SSW,17.3,-,N/A,,Clear,200,2011-11-28 17:12:00
11:32 AM,37.4,21.2,52,30.02,10.0,South,15.0,-,N/A,,Clear,190,2011-11-28 17:32:00
11:52 AM,37.4,19.4,48,30.02,10.0,SSW,17.3,-,N/A,,Clear,200,2011-11-28 17:52:00
12:12 PM,39.2,21.2,49,30.01,10.0,South,16.1,-,N/A,,Clear,190,2011-11-28 18:12:00
12:52 PM,41.0,19.4,42,30.01,10.0,SSW,18.4,-,N/A,,Clear,200,2011-11-28 18:52:00
1:12 PM,44.6,17.6,34,30.01,10.0,SSW,18.4,-,N/A,,Clear,210,2011-11-28 19:12:00
1:33 PM,44.6,17.6,34,30.01,10.0,SW,16.1,-,N/A,,Clear,220,2011-11-28 19:33:00
1:52 PM,44.6,17.6,34,30.01,10.0,SW,13.8,-,N/A,,Clear,220,2011-11-28 19:52:00
2:12 PM,44.6,17.6,34,30.02,10.0,WSW,13.8,-,N/A,,Clear,240,2011-11-28 20:12:00
2:33 PM,46.4,17.6,32,30.02,10.0,WSW,15.0,18.4,N/A,,Clear,240,2011-11-28 20:33:00
2:52 PM,46.4,17.6,32,30.03,10.0,WSW,12.7,17.3,N/A,,Clear,240,2011-11-28 20:52:00
3:13 PM,46.4,17.6,32,30.03,10.0,West,13.8,-,N/A,,Clear,260,2011-11-28 21:13:00
3:32 PM,44.6,17.6,34,30.04,10.0,West,11.5,-,N/A,,Clear,270,2011-11-28 21:32:00
3:52 PM,42.8,19.4,39,30.05,10.0,West,10.4,-,N/A,,Clear,270,2011-11-28 21:52:00
4:13 PM,44.6,19.4,37,30.06,10.0,West,9.2,-,N/A,,Clear,280,2011-11-28 22:13:00
4:33 PM,42.8,19.4,39,30.07,10.0,West,6.9,-,N/A,,Clear,270,2011-11-28 22:33:00
4:52 PM,39.2,19.4,45,30.08,10.0,West,5.8,-,N/A,,Clear,270,2011-11-28 22:52:00
5:13 PM,42.8,26.6,53,30.09,10.0,NW,12.7,-,N/A,,Clear,320,2011-11-28 23:13:00
5:32 PM,42.8,26.6,53,30.09,10.0,NNW,12.7,-,N/A,,Clear,330,2011-11-28 23:32:00
5:52 PM,42.8,26.6,53,30.10,10.0,NNW,13.8,-,N/A,,Clear,330,2011-11-28 23:52:00
6:13 PM,42.8,28.4,57,30.10,10.0,NNW,19.6,-,N/A,,Clear,330,2011-11-29 00:13:00
6:33 PM,42.8,28.4,57,30.10,10.0,NNW,19.6,25.3,N/A,,Clear,340,2011-11-29 00:33:00
6:52 PM,42.8,28.4,57,30.12,10.0,NNW,15.0,20.7,N/A,,Clear,340,2011-11-29 00:52:00
7:12 PM,42.8,28.4,57,30.13,10.0,NNW,16.1,20.7,N/A,,Clear,340,2011-11-29 01:12:00
7:32 PM,41.0,30.2,65,30.14,10.0,NNW,15.0,-,N/A,,Clear,340,2011-11-29 01:32:00
7:53 PM,39.2,30.2,70,30.15,10.0,NNW,16.1,-,N/A,,Clear,330,2011-11-29 01:53:00
8:13 PM,39.2,30.2,70,30.16,10.0,NNW,16.1,23.0,N/A,,Clear,340,2011-11-29 02:13:00
8:32 PM,37.4,28.4,70,30.16,10.0,NNW,19.6,26.5,N/A,,Clear,340,2011-11-29 02:32:00
8:53 PM,37.4,28.4,70,30.17,10.0,North,15.0,-,N/A,,Clear,350,2011-11-29 02:53:00
9:12 PM,37.4,28.4,70,30.18,10.0,North,18.4,23.0,N/A,,Clear,350,2011-11-29 03:12:00
9:32 PM,35.6,28.4,75,30.19,10.0,North,16.1,-,N/A,,Clear,350,2011-11-29 03:32:00
9:53 PM,35.6,28.4,75,30.20,10.0,North,12.7,-,N/A,,Clear,350,2011-11-29 03:53:00
10:12 PM,33.8,28.4,81,30.21,10.0,NNW,12.7,-,N/A,,Clear,340,2011-11-29 04:12:00
10:32 PM,32.0,26.6,80,30.21,10.0,NNW,11.5,-,N/A,,Clear,340,2011-11-29 04:32:00
10:53 PM,30.2,26.6,86,30.22,10.0,NNW,10.4,-,N/A,,Clear,340,2011-11-29 04:53:00
11:12 PM,30.2,26.6,86,30.22,10.0,NNW,11.5,-,N/A,,Clear,330,2011-11-29 05:12:00
11:32 PM,30.2,26.6,86,30.23,10.0,NNW,12.7,-,N/A,,Clear,330,2011-11-29 05:32:00
11:53 PM,28.4,26.6,93,30.23,10.0,NNW,11.5,-,N/A,,Clear,330,2011-11-29 05:53:00